星链-1578 (STARLINK-1578 )

导读 | 豆包AI

STARLINK-1578是美国SpaceX公司星链卫星互联网项目的卫星,于2020年8月7日发射,属于星链低轨星座组网卫星,运行在近地轨道。作为星链组网的组成部分,它为全球提供高速互联网接入服务,通过多星组网实现全球覆盖,支持传统终端及后续手机直连等服务,星链系统采用相控阵天线、激光星间链路等技术,具备高传输速率低时延特点。

基本信息
目录编号:
46082
目录名称:
STARLINK-1578
国际标识:
2020-055BH
轨道中心:
EARTH
卫星名称:
星链-1578
卫星全名:
星链-1578 (STARLINK-1578 )
卫星状态:
在轨 (已飞行2066 天)
发射日期:
2020-08-07 UTC
国别 :
美国 (US)
星等 :
--
轨道信息
数据来源 国际轨道数据
星历时间: 2026-04-04T05:03:10+0800
6小时前
查看轨道信息
半长轴: 6912.88km
偏心率: 0.0001264
轨道倾角: 53.054°
近地点辐角 119.664°
升交点赤经 343.394°
平近点角 240.448°
近地点: 533.869km
远地点: 535.617km
周期: 95.334分钟
每日圈数: 15.104776
详细信息
固有亮度:
5
最大亮度:
2.5
卫星平台:
Starlink V1.0
覆盖范围:
全球
运营商:
太空探索技术公司
运营商所在国:
美国
制造商(研发单位):
太空探索技术公司
制造商所在国:
美国
使用方式:
暂无
卫星简介
星链(Starlink)计划是由太空探索技术公司(SpaceX)提出的一个巨型低轨卫星互联网星座项目,计划在2019年至2024年间在太空搭建由约1.2万颗卫星组成的“星链”网络,其中1584颗将部署在地球上空550千米处的近地轨道,并从2020年开始工作。该卫星仍在工作。
2D轨道图
3D轨道图
轨道高度分析图
轨道倾角分析图
轨道综合分析图
查看轨道综合分析图